Home > Time Zones > World Clock > Weather > Norway > Moss > Past weeks

Flag for Norway Weather past 2 weeks in Moss, Norway

Now
50 °F

Partly sunny.


Feels Like: 50 °F
Forecast: 52 / 63 °F
Wind: 2 mph from East

Location: Rygge

Current Time: Sep 20, 2014 at 9:58:52 AM

Latest Report: Sep 20, 2014 at 9:20 AM


Visibility: 6 mi

Pressure: 29.98 "Hg

Humidity: 94%

Dew point: 48 °F

Location of MossLocation

Historic Weather in Moss — Graph

°F

Moss temperature yesterday

Maximum temperature yesterday: 68 °F (at 3:50 PM)
Minimum temperature yesterday: 45 °F (at 6:50 AM)
Average temperature yesterday: 54 °F

Past Weeks' High & Low Weather Summary

 TemperatureHumidityPressure
High70 °F (Sep 6, 3:50 PM)100% (Sep 5, 8:20 AM)30.48 "Hg (Sep 5, 8:20 AM)
Low45 °F (Sep 14, 3:20 AM)43% (Sep 13, 5:50 PM)29.77 "Hg (Sep 9, 2:20 AM)
Average57 °F81%30.16 "Hg
* Reported Sep 5 8:20 AM — Sep 20 8:20 AM, Moss, Weather by CustomWeather, © 2014

Note: Actual official high and low records may vary slightly from our data, if they occured in-between our weather recording intervals... More about our weather records

Advertising

Moss weather history for previous 24 hours

 ConditionsComfort  
Time TempWeatherWind HumidityBarometerVisibility
8:20 AM
Sep 20
46 °FPartly sunny.2 mph100%29.98 "Hg4 mi
7:50 AM45 °FPassing clouds.2 mph100%29.98 "Hg5 mi
7:20 AM45 °FFog.3 mph93%30.01 "Hg3 mi
6:50 AM45 °FFog.2 mph100%30.01 "Hg3 mi
6:20 AM45 °FFog.3 mph100%29.98 "HgN/A
5:50 AM45 °FClear.No wind100%29.98 "Hg10 mi
5:20 AM45 °FPassing clouds.3 mph100%29.98 "Hg6 mi
4:50 AM45 °FQuite cool.6 mph100%30.01 "Hg4 mi
4:20 AM45 °FQuite cool.2 mph100%30.01 "Hg6 mi
3:50 AM45 °FQuite cool.2 mph100%30.01 "HgN/A
3:20 AM45 °FLight fog.3 mph100%30.01 "Hg3 mi
2:50 AM46 °FLight fog.1 mph93%30.01 "Hg1 mi
1:50 AM48 °FCool.2 mph100%30.01 "Hg3 mi
1:20 AM48 °FCool.3 mph100%30.04 "Hg4 mi
12:50 AM48 °FCool.5 mph100%30.04 "HgN/A
12:20 AM48 °FCool.5 mph100%30.04 "HgN/A
11:50 PM
Sep 19
50 °FCool.3 mph94%30.04 "HgN/A
11:20 PM52 °FClear.3 mph94%30.04 "Hg10 mi
10:50 PM52 °FClear.3 mph94%30.04 "Hg10 mi
10:20 PM52 °FClear.2 mph94%30.04 "Hg10 mi
9:50 PM54 °FClear.1 mph88%30.04 "Hg10 mi
9:20 PM52 °FClear.3 mph94%30.04 "Hg10 mi
8:50 PM54 °FPassing clouds.3 mph94%30.04 "HgN/A
8:20 PM57 °FSunny.5 mph88%30.04 "Hg10 mi
7:50 PM57 °FSunny.6 mph88%30.04 "Hg10 mi
7:20 PM59 °FPassing clouds.6 mph82%30.04 "HgN/A
6:50 PM61 °FSunny.5 mph72%30.04 "Hg10 mi
6:20 PM63 °FSunny.6 mph59%30.04 "Hg10 mi
5:50 PM64 °FPassing clouds.6 mph56%30.04 "HgN/A
5:20 PM64 °FPassing clouds.7 mph60%30.04 "HgN/A
4:50 PM66 °FPassing clouds.5 mph49%30.07 "HgN/A
4:20 PM66 °FPassing clouds.7 mph52%30.07 "HgN/A
3:50 PM68 °FPassing clouds.3 mph56%30.07 "HgN/A
3:20 PM66 °FPassing clouds.6 mph52%30.07 "HgN/A
2:50 PM66 °FPassing clouds.6 mph56%30.07 "HgN/A
2:20 PM66 °FSunny.2 mph60%30.07 "Hg10 mi
1:50 PM66 °FSunny.1 mph60%30.09 "Hg10 mi
1:20 PM64 °FSunny.3 mph64%30.09 "Hg10 mi
12:50 PM64 °FSunny.2 mph64%30.09 "Hg10 mi
12:20 PM63 °FSunny.2 mph68%30.09 "Hg10 mi
11:50 AM59 °FPassing clouds.3 mph77%30.09 "HgN/A
11:20 AM55 °FPassing clouds.3 mph88%30.12 "HgN/A
10:50 AM54 °FSunny.5 mph88%30.12 "Hg10 mi
10:20 AM50 °FSunny.5 mph94%30.12 "Hg10 mi
9:50 AM50 °FSunny.3 mph94%30.12 "Hg10 mi
9:20 AM48 °FSunny.5 mph94%30.12 "Hg10 mi
Weather by CustomWeather, © 2014

See weather overviewHow to use our weather pages